Location: *
(28.2408°N, 53.4600°E)
Time: 10:50:29
(UTC+00:00)

SL-16 R/B - Pass Details

Date: 22 September 2019
Orbit: 840 x 849 km, 71.0° (Epoch: 18 October)

Event Time Altitude Azimuth Distance (km) Brightness Sun altitude
Rises 15:56:47 0° 358° (N) 3,408 5.5 -21.3°
Reaches altitude 10° 15:59:50 10° 13° (NNE) 2,472 4.6 -21.9°
Enters shadow 16:02:24 19° 38° (NE) 1,914 3.8 -22.5°
